| time (UTC) | temp C | wind direction | speed KPH | gust KPH | rain 1hr cm | rain 24hr cm | rain mn cm | humidity % | barometer mb |
| 20260503200023 | 19 | 317 | 11.3 | 19.3 | 0.00 | 0.00 | 0.00 | 30 | 1002.3 |
| 20260503194525 | 20 | 313 | 9.7 | 27.4 | 0.00 | 0.00 | 0.00 | 31 | 1002.5 |
| 20260503193040 | 20 | 307 | 9.7 | 24.1 | 0.00 | 0.00 | 0.00 | 30 | 1002.6 |
| 20260503191538 | 20 | 314 | 8.0 | 29.0 | 0.00 | 0.00 | 0.00 | 31 | 1002.9 |
| 20260503190027 | 20 | 357 | 9.7 | 22.5 | 0.00 | 0.00 | 0.00 | 34 | 1002.9 |
| 20260503184525 | 19 | 317 | 9.7 | 20.9 | 0.00 | 0.00 | 0.00 | 33 | 1003.1 |
| 20260503183009 | 18 | 282 | 11.3 | 25.7 | 0.00 | 0.00 | 0.00 | 35 | 1003.3 |
| 20260503181511 | 19 | 349 | 11.3 | 22.5 | 0.00 | 0.00 | 0.00 | 34 | 1003.2 |
| 20260503180024 | 19 | 295 | 12.9 | 20.9 | 0.00 | 0.00 | 0.00 | 33 | 1003.3 |
| 20260503174506 | 19 | 309 | 11.3 | 22.5 | 0.00 | 0.00 | 0.00 | 36 | 1003.4 |
| 20260503173006 | 19 | 351 | 6.4 | 14.5 | 0.00 | 0.00 | 0.00 | 40 | 1003.4 |
| 20260503171512 | 18 | 265 | 8.0 | 20.9 | 0.00 | 0.00 | 0.00 | 39 | 1003.6 |
| 20260503081504 | 8 | 195 | 0.0 | 3.2 | 0.00 | 0.00 | 0.00 | 73 | 1007.0 |
| 20260503071505 | 10 | 284 | 4.8 | 14.5 | 0.00 | 0.00 | 0.00 | 60 | 1007.9 |
| 20260503054506 | 8 | 224 | 0.0 | 3.2 | 0.00 | 0.00 | 0.00 | 63 | 1008.3 |
| 20260503053008 | 9 | 224 | 0.0 | 3.2 | 0.00 | 0.00 | 0.00 | 61 | 1008.4 |
| 20260503051504 | 9 | 224 | 0.0 | 3.2 | 0.00 | 0.00 | 0.00 | 56 | 1008.5 |
| 20260503050005 | 9 | 188 | 1.6 | 12.9 | 0.00 | 0.00 | 0.00 | 55 | 1008.6 |
| 20260503044509 | 8 | 187 | 0.0 | 8.0 | 0.00 | 0.00 | 0.00 | 55 | 1008.7 |
| 20260503043006 | 8 | 202 | 3.2 | 9.7 | 0.00 | 0.00 | 0.00 | 56 | 1008.8 |
| 20260503041511 | 9 | 231 | 1.6 | 4.8 | 0.00 | 0.00 | 0.00 | 53 | 1009.0 |
| 20260503040011 | 9 | 229 | 0.0 | 6.4 | 0.00 | 0.00 | 0.00 | 53 | 1009.0 |
| 20260503034507 | 8 | 186 | 3.2 | 6.4 | 0.00 | 0.00 | 0.00 | 56 | 1009.2 |
| 20260503033011 | 8 | 186 | 3.2 | 6.4 | 0.00 | 0.00 | 0.00 | 54 | 1009.3 |
| 20260503031513 | 8 | 195 | 1.6 | 4.8 | 0.00 | 0.00 | 0.00 | 60 | 1009.6 |
| 20260503030012 | 8 | 185 | 1.6 | 4.8 | 0.00 | 0.00 | 0.00 | 57 | 1009.7 |
| 20260503024514 | 10 | 184 | 0.0 | 3.2 | 0.00 | 0.00 | 0.00 | 58 | 1009.8 |
| 20260503023013 | 10 | 184 | 1.6 | 1.6 | 0.00 | 0.00 | 0.00 | 51 | 1010.0 |
| 20260503021512 | 10 | 187 | 0.0 | 3.2 | 0.00 | 0.00 | 0.00 | 49 | 1010.1 |
| 20260503020015 | 11 | 187 | 0.0 | 4.8 | 0.00 | 0.00 | 0.00 | 54 | 1010.1 |
| 20260503014514 | 11 | 198 | 1.6 | 3.2 | 0.00 | 0.00 | 0.00 | 46 | 1010.1 |
| 20260503013024 | 11 | 206 | 1.6 | 9.7 | 0.00 | 0.00 | 0.00 | 45 | 1010.2 |
| 20260503011515 | 12 | 244 | 1.6 | 4.8 | 0.00 | 0.00 | 0.00 | 44 | 1010.2 |
| 20260503010015 | 12 | 278 | 1.6 | 4.8 | 0.00 | 0.00 | 0.00 | 41 | 1010.2 |
| 20260503004516 | 12 | 277 | 3.2 | 9.7 | 0.00 | 0.00 | 0.00 | 40 | 1010.4 |
| 20260503003016 | 12 | 296 | 0.0 | 3.2 | 0.00 | 0.00 | 0.00 | 39 | 1010.6 |
| 20260503001513 | 13 | 328 | 1.6 | 4.8 | 0.00 | 0.00 | 0.00 | 37 | 1010.7 |
| 20260503000017 | 13 | 240 | 1.6 | 12.9 | 0.00 | 0.00 | 0.00 | 35 | 1010.7 |
| 20260502234528 | 13 | 287 | 1.6 | 14.5 | 0.00 | 0.00 | 0.00 | 34 | 1010.7 |
| 20260502233030 | 13 | 224 | 3.2 | 8.0 | 0.00 | 0.00 | 0.00 | 34 | 1010.9 |
| 20260502231513 | 13 | 301 | 6.4 | 14.5 | 0.00 | 0.00 | 0.00 | 34 | 1011.0 |
| 20260502230025 | 13 | 316 | 6.4 | 17.7 | 0.00 | 0.00 | 0.00 | 33 | 1011.0 |
| 20260502224503 | 13 | 314 | 8.0 | 19.3 | 0.00 | 0.00 | 0.00 | 31 | 1011.1 |
| 20260502223004 | 14 | 323 | 6.4 | 14.5 | 0.00 | 0.00 | 0.00 | 31 | 1011.3 |
| 20260502221515 | 15 | 344 | 6.4 | 19.3 | 0.00 | 0.00 | 0.00 | 28 | 1011.3 |
| 20260502220023 | 15 | 344 | 6.4 | 19.3 | 0.00 | 0.00 | 0.00 | 28 | 1011.3 |
| 20260502214523 | 15 | 306 | 4.8 | 16.1 | 0.00 | 0.00 | 0.00 | 30 | 1011.5 |
| 20260502213003 | 15 | 270 | 6.4 | 27.4 | 0.00 | 0.00 | 0.00 | 28 | 1011.7 |
| 20260502211512 | 14 | 250 | 6.4 | 12.9 | 0.00 | 0.00 | 0.00 | 28 | 1011.9 |
| 20260502210015 | 13 | 276 | 3.2 | 25.7 | 0.00 | 0.00 | 0.00 | 30 | 1012.1 |
| 20260502204520 | 15 | 336 | 6.4 | 17.7 | 0.00 | 0.00 | 0.00 | 30 | 1012.2 |
| 20260502203024 | 15 | 316 | 4.8 | 14.5 | 0.00 | 0.00 | 0.00 | 31 | 1012.1 |
| 20260502201508 | 15 | 281 | 6.4 | 19.3 | 0.00 | 0.00 | 0.00 | 28 | 1012.4 |